Regional Weather Roundup
Issued by NWS Charleston, SC

Current Version | Previous Version | Graphics & Text | Print | Product List | Glossary On
Versions: 1 2 3 4 5 6 7 8 9 10 11 12 13 14 15 16 17 18 19 20 21 22 23 24 25 26 27 28 29 30 31 32 33 34 35 36 37 38 39 40 41 42 43 44 45 46 47 48 49 50
000
ASUS42 KCHS 202110
RWRCHS
REGIONAL WEATHER ROUNDUP
NATIONAL WEATHER SERVICE CHARLESTON SC
500 PM EDT SUN APR 20 2014

NOTE: "FAIR" INDICATES FEW OR NO CLOUDS BELOW 12,000 FEET WITH NO
SIGNIFICANT WEATHER AND/OR OBSTRUCTIONS TO VISIBILITY.

NOT ALL STATIONS ARE QUALITY CONTROLLED BY THE NATIONAL
WEATHER SERVICE. USE DATA WITH CAUTION...ESPECIALLY
DEWPOINT OBSERVATIONS.

SCZ027-030-031-034>040-042>050-202200-
...SOUTH CAROLINA...

CITY           SKY/WX    TMP DP  RH WIND       PRES   REMARKS
N CHARLESTON   PTSUNNY   67  49  52 N22G30    30.08F
WATERFRONT PRK   N/A     63 N/A N/A N22         N/A
FORT JOHNSON   NOT AVBL
MOUNT PLEASANT CLOUDY   N/A N/A N/A N8G18     30.07S
JOHNS ISLAND   CLOUDY    64  54  68 N12G23    30.08S
PINOPOLIS        N/A     64  52  63 N21       30.03R
MONCKS CORNER  FAIR      66  54  63 N17G26    30.09F
SUMMERVILLE    NOT AVBL
BEAUFORT MCAS  CLOUDY    68  51  54 NE16      30.09R
BEAUFORT ARPT  CLOUDY    68  54  60 N15G23    30.08R
HILTON HEAD IS PTSUNNY   70  55  60 N15       30.09R
GEORGETOWN     NOT AVBL
WALTERBORO     MOCLDY    64  52  63 NE7G17    30.12R
ORANGEBURG     PTSUNNY   68  44  42 NE13G22   30.12F
BARNWELL       CLOUDY    68  46  45 NE15G21   30.13S
AIKEN          CLOUDY    70  46  43 NE9       30.17R
MANNING        CLOUDY    66  41  39 N17G26    30.12S
KINGSTREE      NOT AVBL
COLUMBIA       CLOUDY    70  42  36 NE14G20   30.14S
SUMTER         CLOUDY    67  45  44 NE20G26   30.13S
FLORENCE       CLOUDY    66  50  56 N13       30.13F
MYRTLE BEACH   CLOUDY    61  54  77 N23G33    30.06S
N MYRTLE BEACH CLOUDY    60  54  80 N22G37    30.05F

$$

GAZ063-065-086>088-099>101-113>116-118-119-134-136>141-150-202200-
...GEORGIA...

CITY           SKY/WX    TMP DP  RH WIND       PRES   REMARKS
SAVANNAH ARPT  MOSUNNY   73  53  49 N12       30.08S
HUNTER AAF     MOSUNNY   71  55  55 VRB7G17   30.06R
FORT STEWART   CLOUDY    70  60  69 N14       30.07S
STATESBORO     NOT AVBL
SYLVANIA       CLOUDY    70  52  52 NE10G16   30.11S
CLAXTON        FAIR      70  55  60 NE9G17    30.10S
THOMSON        SUNNY     72  47  40 NE8G16    30.18S
AUGUSTA-BUSH   PTSUNNY   74  45  35 N12       30.13S
AUGUSTA-DANIEL PTSUNNY   73  42  32 N14       30.13F
SWAINSBORO     FAIR      70  52  52 N6        30.12S
VIDALIA        CLOUDY    72  55  56 N8        30.10F
ALMA           CLOUDY    63  53  70 W8        30.11F
WAYCROSS       NOT AVBL
JESUP          CLOUDY    63  57  82 NW5       30.09S
BRUNSWICK      CLOUDY    63  55  77 CALM      30.09F
SAINT SIMONS   CLOUDY    62  55  77 NW7       30.08F

$$

SCZ027-028-034-036>038-045-046-048>050-GAZ119-141-202200-
...LAKE AND SUPPLEMENTAL COASTAL OBSERVATIONS...

STATION/POSITION TIME  TEMP    WIND        PRES    WAVE   SWELL
                       AIR SEA DIR/SP/G            HT/PER HT/PER/DIR
                 (UTC) (F)     (DEG/KT/KT) (MB)    (FT/S) (FT/S/D)
UPR LAKE MARION  NOT AVBL
WINYAH BAY       2000   60     340/ 12     1018.0S
LAKE MURRAY      2000   66      30/  5/ 10 1020.0F
ACE BASIN NERRS  2000   68     360/  7     1018.0S
FORT PULASKI     2100   67 59   10/ 16/ 20 1018.4R
SAPELO ISLAND    2000   64     340/  5     1019.0S

$$

ANZ835-935-AMZ111-154-330-350-352-354-374-450-454-472-202200-
...C-MAN AND BUOY OBSERVATIONS...

STATION/POSITION TIME  TEMP    WIND        PRES    WAVE   SWELL
                       AIR SEA DIR/SP/G            HT/PER HT/PER/DIR
                 (UTC) (F)     (DEG/KT/KT) (MB)    (FT/S) (FT/S/D)
FOLLY BEACH CMAN 2000   62     360/ 16/ 20 1018.7R
BUOY 41004       NOT AVBL
BUOY 41008       2100   62 63  360/ 12/ 14 1018.1R   5/ 6   3/ 70/ 6
5E ST. MARYS GA  2100      63                N/A     4/ 7   2/ 60/13
FRYING PAN BUOY  2100   61 68   20/ 35/ 43 1013.0R  11/ 7   3/ 20/10
BUOY 41025       2100   69 75   60/ 27/ 33 1015.4R  18/11  13/ 50/11
CAPE LOOKOUT NC  2000   56     360/ 26/ 34 1016.6S
BUOY 41002       NOT AVBL
BUOY 41010       2100   74 76  330/ 16/ 19 1013.4F   6/ 9   5/ 40/ 9
BUOY 41012       NOT AVBL
ST AUGUSTINE FL  2100   60     360/ 22/ 24 1018.2S
CAPERS NEARSHORE NOT AVBL
FRIPP NEARSHORE  2000   66      20/ 16/ 19   N/A


$$


USA.gov is the U.S. government's official web portal to all federal, state and local government web resources and services.